Preview of NWS' New Version of Forecast
This preview is not operational and should not be used for support decisions.
Latest weather observations around

Chino, Chino Airport (KCNO)

Using International System of Units (Switch to English Units)
Date/ Time (PDT) Wind (kph) Vis. (km) Weather Sky Cond. Temp (°C) Rel. Humidity Wind Chill (°C) Heat Index (°C) Pressure Precip. (cm)
Air Dwpt 6 hour Altimeter (hPa) Sea level (hPa) 1 hr 3 hr 6 hr
Max Min
Sep 20 23:53 Calm 16.09 Clear CLR 18 15     81%     1012.9 1012.1      
Sep 20 22:53 NNW 5 16.09 Clear CLR 18 14     76%     1012.5 1012      
Sep 20 21:53 NNW 5 16.09 Clear CLR 18 13     70%     1012.2 1011.6      
Sep 20 20:53 W 5 16.09 Clear CLR 20 13     65%     1011.5 1011      
Sep 20 19:53 W 9 16.09 Clear CLR 21 13     63%     1010.8 1010.2      
Sep 20 18:53 WSW 15 16.09 Clear CLR 23 14     57%   23 1010.5 1009.8      
Sep 20 17:53 W 22 16.09 Clear CLR 26 13     45%   25 1010.2 1009.5      
Sep 20 16:53 WSW 21 16.09 Clear   27 13     44%   27 1010.2 1009.7      
Sep 20 15:53 WSW 22 16.09 Clear CLR 29 13     38%   28 1010.2 1009.6      
Sep 20 14:53 WSW 15 16.09 Clear   30 11     31%   29 1010.5 1009.9      
Sep 20 13:53 W 18 16.09 Clear CLR 29 12     34%   28 1011.2 1010.5      
Sep 20 12:53 8 16.09 Clear CLR 27 12     38%   27 1011.9 1011.2      
Sep 20 11:53 Calm 16.09 Clear CLR 26 12     42%   25 1012.5 1011.9      
Sep 20 10:53 8 16.09 Clear CLR 24 14     54%   24 1013.2 1012.5      
Sep 20 09:53 WNW 11 16.09 Partly Cloudy SCT026 22 14     59%   22 1013.6 1013      
Sep 20 08:53 SW 5 16.09 Mostly Cloudy BKN031 21 14     65%     1013.6 1013      
Sep 20 07:53 Calm 16.09 Mostly Cloudy BKN031 19 14     73%     1012.9 1012.5      
Sep 20 06:53 Calm 16.09 Mostly Cloudy BKN031 17 14     81%     1012.9 1012.4      
Sep 20 05:53 S 8 16.09 Cloudy OVC024 17 14     81%     1012.5 1011.9      
Sep 20 04:53 SSE 5 16.09 Cloudy OVC022 17 14     84%     1012.2 1011.7      
Sep 20 03:53 W 5 16.09 Cloudy OVC021 17 14     84%     1011.9 1011.3      
Sep 20 02:53 W 8 16.09 Mostly Cloudy BKN016 17 14     86%     1011.9 1011.2      
Sep 20 02:51 W 8 16.09 Mostly Cloudy BKN016 17 14     83%     1011.9        
Sep 20 01:53 W 8 16.09 Clear CLR 17 14     84%     1011.9 1011.2      
Sep 20 00:53 W 8 16.09 Partly Cloudy FEW039 SCT048 17 14     86%     1011.5 1011.1      
Sep 19 23:53 W 8 16.09 Cloudy BKN035 OVC044 18 15     81%     1011.2 1010.8      
Sep 19 22:53 SW 5 16.09 Clear CLR 18 15     84%     1010.8 1010.5      
Sep 19 21:53 W 11 16.09 Clear CLR 18 15     84%     1010.5 1010.1      
Sep 19 20:53 W 11 16.09 Clear CLR 18 14     78%     1010.5 1009.9      
Sep 19 19:53 WSW 17 16.09 Partly Cloudy SCT050 19 15     76%     1010.2 1009.7      
Sep 19 18:53 WSW 21 16.09 Partly Cloudy SCT050 21 15     68%     1009.8 1009.4      
Sep 19 17:53 WSW 26 16.09 Partly Cloudy SCT050 23 14     57%   23 1009.5 1009.2      
Sep 19 16:53 WSW 22 16.09 Mostly Clear FEW050 26 14     48%   25 1009.5 1009      
Sep 19 15:53 WSW 22 16.09 Mostly Clear FEW050 26 13     44%   26 1009.8 1009.3      
Sep 19 14:53 WSW 18 16.09 Partly Cloudy SCT046 27 13     42%   27 1010.2 1009.6      
Sep 19 13:53 W 15 16.09 Partly Cloudy SCT040 27 12     39%   27 1010.8 1010.2      
Sep 19 12:53 SW 9 16.09 Mostly Clear FEW040 27 12     41%   26 1011.2 1010.7      
Sep 19 11:53 5 16.09 Mostly Clear FEW040 24 13     48%   24 1012.2 1011.7      
Sep 19 10:53 Calm 16.09 Mostly Clear FEW040 23 13     53%   23 1012.9 1012.3      
Sep 19 09:53 NNW 8 16.09 Partly Cloudy SCT040 22 14     61%   22 1013.2 1012.8      
Sep 19 08:53 Calm 16.09 Partly Cloudy SCT040 19 14     71%     1013.6 1013      
Sep 19 07:53 SE 5 16.09 Partly Cloudy SCT015 SCT030 17 14     84%     1013.2 1012.8      
Sep 19 06:53 Calm 14.48 Partly Cloudy SCT015 14 12     87%     1013.2 1012.7      
Sep 19 05:53 W 5 16.09 Clear CLR 14 12     87%     1012.9 1012.3      
Sep 19 04:53 ESE 8 16.09 Clear CLR 14 12     89%     1012.5 1011.9      
Sep 19 03:53 WNW 5 12.87 Clear CLR 15 14     93%     1013.2 1012.5      
Sep 19 02:53 WNW 8 16.09 Clear CLR 16 13     86%     1013.2 1012.5      
Sep 19 01:53 Calm 12.87 Clear CLR 15 13     90%     1012.9 1012.4      
Sep 19 00:53 N 5 14.48 Clear CLR 16 13     83%     1012.5 1012      
Sep 18 23:53 Calm 16.09 Clear CLR 16 12     78%     1012.5 1012      
Sep 18 22:53 Calm 16.09 Clear CLR 18 13     73%     1012.9 1012.2      
Sep 18 21:53 NNE 5 16.09 Clear CLR 18 13     73%     1012.5 1012      
Sep 18 20:53 W 9 16.09 Clear CLR 19 13     68%     1012.5 1012      
Sep 18 19:53 W 13 16.09 Clear CLR 21 12     57%     1012.2 1011.6      
Sep 18 18:53 W 21 16.09 Clear CLR 23 11     46%   22 1011.2 1010.9      
Sep 18 17:53 WSW 24 16.09 Clear CLR 25 14     50%   25 1011.5 1010.9      
Sep 18 16:53 W 24 16.09 Clear CLR 28 14     44%   28 1011.5 1010.8      
Sep 18 15:53 W 21 16.09 Clear CLR 29 13     37%   28 1011.5 1010.7      
Sep 18 14:53 W 17 16.09 Clear CLR 29 13     36%   29 1012.2 1011.5      
Sep 18 12:53   16.09 Clear CLR 28 14     43%   28 1013.2 1012.5      
Sep 18 11:53 NNE 8 16.09 Clear CLR 28 12     38%   27 1013.9 1013.2      
Sep 18 10:53 SE 5 16.09 Clear CLR 24 13     50%   24 1014.2 1013.9      
Sep 18 09:53 Calm 12.87 Clear CLR 23 16     64%   23 1014.6 1014.2      
Notice The following observation data may not be complete
Sep 18 08:53   12.87 Clear CLR          %              
Sep 18 06:53 Calm 11.27 Clear CLR 15 13     90%     1013.9 1013.6      
Sep 18 05:53 Calm 14.48 Clear CLR 16 13     86%     1013.2 1012.8      
Sep 18 04:53 Calm 12.87 Clear CLR 16 14     87%     1013.2 1012.4      
Sep 18 03:53 Calm 8.05 Fog/Mist CLR 15 14     93%     1012.9 1012.4      
Sep 18 02:53 Calm 9.66 Fog/Mist CLR 16 14     90%     1013.2 1012.6      
Sep 18 01:53 Calm 12.87 Clear CLR 18 14     81%     1013.2 1012.7      
Sep 18 00:53 Calm 16.09 Clear CLR 17 14     84%     1013.6 1012.8      
Sep 17 23:53 Calm 16.09 Clear CLR 18 15     81%     1013.6 1012.9      
Sep 17 22:53 Calm 16.09 Clear CLR 19 15     78%     1013.6 1012.8      
Sep 17 21:53 W 13 16.09 Clear CLR 19 15     76%     1013.6 1012.9      
May 15 04:53 Calm 12.87 Clear CLR 12 9     83%     1015.9 1015.3      
May 12 10:53 SE 5 16.09 Cloudy BKN025 OVC035 16 11     70%     1015.6 1015.3     0
May 12 02:53 SW 11 14.48 Cloudy BKN023 OVC036 15 9     69%     1012.2 1011.9      
May 12 02:00 SW 8 16.09 Cloudy SCT025 OVC031 15 9     69%     1012.2        
May 11 17:53 W 22 16.09 Cloudy OVC043 17 11     65%     1009.8 1009.4      
May 11 12:53 WNW 11 16.09 Cloudy OVC030 19 11     59%     1011.5 1011      
Jun 10 18:53 W 24 16.09 Mostly Cloudy FEW050 BKN200 20 12     59%     1010.8 1010.5      
Jun 09 20:53 WSW 15 16.09 Mostly Clear FEW018 19 15     76%     1012.5 1012.2      
Jun 09 19:53 WSW 18 16.09 Mostly Clear FEW040 21 15     68%     1012.2 1011.8      
Jun 09 15:53 SW 30 16.09 Mostly Clear FEW050 28 12     37%   27 1011.9 1011.5      
Jun 08 07:53 WSW 8 6.44 Haze OVC014 18 14     76%     1015.9 1015.6      
Jun 07 05:53 Calm 6.44 Haze OVC012 18 14     81%     1013.6 1013.2      
Jun 06 09:53 5 4.02 Haze OVC013 20 14     70%     1014.6 1014